Location: Newark
(39.0622°N, 106.5590°E)
Time: 04:39:28
(UTC+00:00)

deb Explorer IX - Visible Passes

Search period start: 23 January 2020 00:00
Search period end: 02 February 2020 00:00
Orbit: 548 x 1101 km, 38.8° (Epoch: 22 January)

Date Brightness Start Highest point End Pass type
(mag) Time Alt. Az. Time Alt. Az. Time Alt. Az.
23 Jan ? 20:43:31 12° SE 20:43:31 12° SE 20:44:00 10° SE visible
23 Jan ? 22:24:54 10° SW 22:24:54 10° SW 22:25:31 10° SW visible
24 Jan ? 13:02:09 10° S 13:02:17 10° S 13:02:17 10° S visible
25 Jan ? 12:39:47 10° S 12:41:34 16° S 12:41:34 16° S visible
26 Jan ? 12:17:27 10° S 12:20:50 20° SSE 12:20:50 20° SSE visible
26 Jan ? 14:02:05 10° SW 14:02:12 11° SW 14:02:12 11° SW visible
27 Jan ? 11:55:07 10° S 11:59:45 21° SE 12:00:03 21° SE visible
27 Jan ? 13:39:43 10° SW 13:41:25 19° SW 13:41:25 19° SW visible
28 Jan ? 11:32:48 10° S 11:37:19 21° SE 11:39:13 18° ESE visible
28 Jan ? 13:17:23 10° SW 13:20:34 30° SW 13:20:34 30° SW visible
29 Jan ? 11:10:30 10° S 11:14:53 21° SE 11:18:19 14° ESE visible
29 Jan ? 12:55:03 10° SW 12:59:41 45° SSW 12:59:41 45° SSW visible
30 Jan ? 10:48:13 10° S 10:52:27 20° SE 10:57:05 10° E visible
30 Jan ? 12:32:43 10° SW 12:38:43 57° SSE 12:38:43 57° SSE visible
30 Jan ? 14:19:25 10° W 14:20:05 13° W 14:20:05 13° W visible
31 Jan ? 12:10:25 10° SW 12:16:24 57° SSE 12:17:42 49° ESE visible
31 Jan ? 13:57:04 10° W 13:59:04 22° W 13:59:04 22° W visible
01 Feb ? 11:48:08 10° SW 11:53:57 57° SSE 11:56:39 34° E visible
01 Feb ? 13:34:43 10° W 13:38:00 33° W 13:38:00 33° W visible
